TimeMDT,TemperatureF,Dew PointF,Humidity,Sea Level PressureIn,VisibilityMPH,Wind Direction,Wind SpeedMPH,Gust SpeedMPH,PrecipitationIn,Events,Conditions,WindDirDegrees,DateUTC
12:53 AM,27.0,24.1,89,30.17,10.0,Calm,Calm,-,N/A,,Clear,0,2013-05-10 06:53:00
1:53 AM,21.2,19.4,93,30.32,10.0,Calm,Calm,-,N/A,,Scattered Clouds,0,2013-05-10 07:53:00
2:53 AM,23.0,19.9,88,30.17,10.0,Calm,Calm,-,N/A,,Clear,0,2013-05-10 08:53:00
3:53 AM,21.0,18.0,88,30.17,10.0,NE,4.6,-,N/A,,Clear,50,2013-05-10 09:53:00
4:53 AM,19.9,18.0,92,30.17,10.0,Calm,Calm,-,N/A,,Clear,0,2013-05-10 10:53:00
5:53 AM,17.6,15.8,93,30.31,10.0,NE,3.5,-,N/A,,Clear,40,2013-05-10 11:53:00
6:53 AM,19.4,15.8,86,30.33,10.0,Calm,Calm,-,N/A,,Clear,0,2013-05-10 12:53:00
7:53 AM,26.1,21.9,84,30.18,10.0,Calm,Calm,-,N/A,,Clear,0,2013-05-10 13:53:00
8:53 AM,30.0,25.0,82,30.18,10.0,Calm,Calm,-,N/A,,Partly Cloudy,0,2013-05-10 14:53:00
9:53 AM,39.0,24.1,55,30.13,10.0,North,5.8,-,N/A,,Partly Cloudy,350,2013-05-10 15:53:00
10:53 AM,39.2,21.2,49,30.35,10.0,Variable,5.8,-,N/A,,Mostly Cloudy,0,2013-05-10 16:53:00
11:53 AM,44.1,18.0,35,30.11,10.0,NNE,8.1,17.3,N/A,,Overcast,30,2013-05-10 17:53:00
12:53 PM,45.0,19.0,36,30.11,10.0,NNE,11.5,-,N/A,,Clear,20,2013-05-10 18:53:00
1:53 PM,44.1,24.1,45,30.15,10.0,Variable,3.5,-,N/A,,Scattered Clouds,0,2013-05-10 19:53:00
2:53 PM,44.1,21.0,40,30.13,10.0,Variable,3.5,16.1,N/A,,Mostly Cloudy,0,2013-05-10 20:53:00
3:53 PM,41.0,24.8,53,30.37,10.0,NNW,18.4,25.3,N/A,,Overcast,340,2013-05-10 21:53:00
4:08 PM,39.2,28.4,65,30.37,10.0,NW,11.5,19.6,N/A,,Scattered Clouds,320,2013-05-10 22:08:00
4:53 PM,43.0,26.1,51,30.18,10.0,Variable,4.6,-,N/A,,Partly Cloudy,0,2013-05-10 22:53:00
5:53 PM,39.0,28.9,67,30.24,4.0,Variable,4.6,-,0.01,,Haze,0,2013-05-10 23:53:00
6:53 PM,39.9,28.9,65,30.23,10.0,SSW,6.9,-,0.00,,Partly Cloudy,200,2013-05-11 00:53:00
7:53 PM,39.0,28.0,65,30.20,10.0,SSE,4.6,-,N/A,,Scattered Clouds,160,2013-05-11 01:53:00
8:53 PM,37.0,28.0,70,30.22,10.0,Calm,Calm,-,N/A,,Overcast,0,2013-05-11 02:53:00
9:53 PM,34.0,27.0,75,30.21,10.0,Calm,Calm,-,N/A,,Mostly Cloudy,0,2013-05-11 03:53:00
10:53 PM,33.1,27.0,78,30.22,10.0,Calm,Calm,-,N/A,,Mostly Cloudy,0,2013-05-11 04:53:00
11:53 PM,30.9,26.1,82,30.22,10.0,ESE,4.6,-,N/A,,Clear,120,2013-05-11 05:53:00